Phoenix Deer Valley, AZ

4:27 AM MST on December 09, 2019 (GMT -0700)
Phoenix-Deer Valley Municipal

Weather History for KDVT - August, 2019

Change the Weather History Date:

Friday, August 9, 2019

  Actual Average Record
Temperature  
Mean Temperature 92 °F -  
Max Temperature 97 °F 99 °F 109 °F (2002)
Min Temperature 86 °F 80 °F 72 °F (2001)
Cooling Degree Days 26    
Growing Degree Days 42 (Base 50)    
Moisture  
Dew Point 59 °F    
Average Humidity 33    
Maximum Humidity 51    
Minimum Humidity 25    
Precipitation  
Precipitation 0.00 in - - ()
Sea Level Pressure  
Sea Level Pressure 29.82 in    
Wind  
Wind Speed 8 mph (SSW)    
Max Wind Speed 13 mph    
Max Gust Speed -    
Visibility 10 miles    
Events      
Averages and records for this station are not official NWS values.
T = Trace of Precipitation, MM = Missing Value Source: NWS Daily Summary

Daily Weather History Graph

Daily Weather History Graph

Search for Another Location

Airport or City:

Astronomy

Aug. 09, 2019 Rise Set
Actual Time 5:46 AM MST 7:21 PM MST
Civil Twilight 5:19 AM MST 7:47 PM MST
Nautical Twilight 4:47 AM MST 8:19 PM MST
Astronomical Twilight 4:13 AM MST 8:53 PM MST
Moon 3:02 PM MST 12:47 AM MST
Length of Visible Light 14h 28m
Length of Day
13h 35m
Waxing Gibbous, 71% of the Moon is Illuminated
Aug 9
Waxing Gibbous
Aug 15
Full
Aug 23
Last Quarter
Aug 30
New
Sep 5
First Quarter

Hourly Weather History & Observations

Time (MST) Temp. Heat Index Dew Point Humidity Pressure Visibility Wind Dir Wind Speed Gust Speed Precip Events Conditions
12:53 AM 95.0 °F 92.7 °F 54.0 °F 25% 29.72 in 10.0 mi SW 12.7 mph - N/A   Partly Cloudy
1:53 AM - - - N/A% 29.81 in - North - - N/A   Unknown
2:53 AM - - - N/A% 29.82 in - North - - N/A   Unknown
3:53 AM - - - N/A% 29.83 in - North - - N/A   Unknown
4:53 AM - - - N/A% 29.86 in - North - - N/A   Unknown
5:53 AM - - - N/A% 29.89 in - North - - N/A   Unknown
6:53 AM 86.0 °F 88.2 °F 66.0 °F 51% 29.83 in 10.0 mi WSW 5.8 mph - N/A   Clear
7:53 AM - - - N/A% - - North - - N/A   Unknown
8:53 AM 89.1 °F 90.3 °F 64.0 °F 43% 29.86 in 10.0 mi WSW 10.4 mph - N/A   Clear
9:53 AM 89.1 °F 90.0 °F 63.0 °F 42% 29.87 in 10.0 mi WSW 5.8 mph - N/A   Clear
10:53 AM 93.9 °F 95.6 °F 64.0 °F 37% 29.86 in 10.0 mi South 9.2 mph - N/A   Mostly Cloudy
11:53 AM 93.9 °F 94.8 °F 62.1 °F 35% 29.84 in 10.0 mi SE 6.9 mph - N/A   Scattered Clouds
12:53 PM 93.0 °F 92.3 °F 59.0 °F 32% 29.83 in 10.0 mi SW 4.6 mph - N/A   Partly Cloudy
1:53 PM 93.9 °F 92.9 °F 57.9 °F 30% 29.90 in 10.0 mi South 11.5 mph - N/A   Scattered Clouds
2:53 PM 91.0 °F 90.0 °F 57.9 °F 33% 29.88 in 10.0 mi South 6.9 mph - 0.00 in   Clear
3:53 PM 95.0 °F 94.4 °F 59.0 °F 30% 29.85 in 10.0 mi SW 4.6 mph - N/A   Clear
4:53 PM 95.0 °F 94.4 °F 59.0 °F 30% 29.83 in 10.0 mi Calm Calm - N/A   Clear
5:53 PM 97.0 °F 95.3 °F 55.9 °F 25% 29.81 in 10.0 mi Variable 3.5 mph - N/A   Clear
6:53 PM 95.0 °F 93.4 °F 55.9 °F 27% 29.74 in 10.0 mi NNE 3.5 mph - N/A   Clear
7:53 PM 93.9 °F 92.2 °F 55.9 °F 28% 29.83 in 10.0 mi Calm Calm - N/A   Clear
8:53 PM 91.0 °F 88.9 °F 55.0 °F 29% 29.76 in 10.0 mi NNE 4.6 mph - N/A   Clear
9:53 PM 90.0 °F 88.1 °F 55.9 °F 31% 29.76 in 10.0 mi NNE 6.9 mph - N/A   Clear
10:53 PM 88.0 °F 86.9 °F 57.9 °F 36% 29.76 in 10.0 mi NNE 6.9 mph - N/A   Clear
11:53 PM 88.0 °F 86.7 °F 57.0 °F 35% 29.75 in 10.0 mi NE 6.9 mph - N/A   Clear